Fort Meade, MD

1:53 AM EDT on April 25, 2017 (GMT -0400)
Tipton

Weather History for KFME - December, 2012

Change the Weather History Date:

Tuesday, December 18, 2012

  Actual Average (KBWI) Record (KBWI)
Temperature  
Mean Temperature 47 °F -  
Max Temperature 59 °F 42 °F 72 °F (2006)
Min Temperature 33 °F 25 °F 7 °F (1919)
Degree Days  
Heating Degree Days 18    
Moisture  
Dew Point 40 °F    
Average Humidity 76    
Maximum Humidity 100    
Minimum Humidity 42    
Precipitation  
Precipitation 0.00 in - - ()
Sea Level Pressure  
Sea Level Pressure 29.65 in    
Wind  
Wind Speed 6 mph (West)    
Max Wind Speed 20 mph    
Max Gust Speed 34 mph    
Visibility 8 miles    
Events      
Averages and records for this station are not official NWS values.
T = Trace of Precipitation, MM = Missing Value Source: NWS Daily Summary

Daily Weather History Graph

Daily Weather History Graph

Search for Another Location

Airport or City:

Trip Planner

Search our weather history database for the weather conditions in past years. The results will help you decide how hot, cold, wet, or windy it might be!

Date:

Astronomy

Dec. 18, 2012 Rise Set
Actual Time 7:21 AM EST 4:46 PM EST
Civil Twilight 6:51 AM EST 5:16 PM EST
Nautical Twilight 6:17 AM EST 5:50 PM EST
Astronomical Twilight 5:44 AM EST 6:22 PM EST
Moon 11:02 AM EST (12/18) 11:07 PM EST (12/18)
Length of Visible Light 10h 25m
Length of Day
9h 25m
Waxing Crescent, 34% of the Moon is Illuminated
Dec 18
Waxing Crescent
Dec 20
First Quarter
Dec 28
Full
Jan 4
Last Quarter
Jan 11
New

Hourly Weather History & Observations

Time (EST) Temp. Windchill Dew Point Humidity Pressure Visibility Wind Dir Wind Speed Gust Speed Precip Events Conditions
12:12 AM 51.8 °F - 50.0 °F 94% 29.56 in 4.0 mi Calm Calm - N/A   Overcast
12:33 AM 51.8 °F - 50.0 °F 94% 29.56 in 5.0 mi Calm Calm - N/A   Overcast
12:54 AM 51.8 °F - 50.0 °F 94% 29.55 in 2.0 mi Calm Calm - N/A   Overcast
1:15 AM 50.0 °F - 50.0 °F 100% 29.55 in 1.0 mi Calm Calm - N/A   Overcast
1:57 AM 51.8 °F - 51.8 °F 100% 29.55 in 5.0 mi SW 10.4 mph - N/A   Overcast
2:18 AM 51.8 °F - 51.8 °F 100% 29.56 in 5.0 mi SW 8.1 mph - N/A   Overcast
3:03 AM 51.8 °F - 51.8 °F 100% 29.55 in 7.0 mi SW 5.8 mph - N/A   Overcast
3:24 AM 51.8 °F - 50.0 °F 94% 29.55 in 7.0 mi SW 9.2 mph - N/A   Overcast
3:45 AM 51.8 °F - 50.0 °F 94% 29.55 in 10.0 mi WSW 9.2 mph - N/A   Mostly Cloudy
4:06 AM 50.0 °F - 50.0 °F 100% 29.56 in 10.0 mi SW 8.1 mph - N/A   Mostly Cloudy
4:27 AM 50.0 °F - 48.2 °F 94% 29.56 in 10.0 mi WSW 8.1 mph - N/A   Overcast
4:48 AM 50.0 °F - 48.2 °F 94% 29.56 in 10.0 mi SW 6.9 mph - N/A   Overcast
5:09 AM 50.0 °F - 46.4 °F 87% 29.57 in 7.0 mi SW 5.8 mph - N/A   Overcast
5:30 AM 48.2 °F - 46.4 °F 93% 29.57 in 7.0 mi WSW 4.6 mph - N/A   Overcast
5:51 AM 46.4 °F 45.2 °F 44.6 °F 93% 29.57 in 2.0 mi West 3.5 mph - N/A   Mostly Cloudy
6:12 AM 44.6 °F - 44.6 °F 100% 29.57 in 1.5 mi Calm Calm - N/A   Scattered Clouds
6:33 AM 44.6 °F 43.1 °F 42.8 °F 93% 29.59 in 0.5 mi West 3.5 mph - N/A   Mostly Cloudy
6:57 AM 42.8 °F - 41.0 °F 93% 29.59 in 0.5 mi Calm Calm - N/A   Scattered Clouds
7:18 AM 42.8 °F - 42.8 °F 100% 29.60 in 0.5 mi Calm Calm - N/A   Overcast
7:39 AM 42.8 °F - 42.8 °F 100% 29.60 in 0.2 mi Calm Calm - N/A   Overcast
8:00 AM 42.8 °F - 41.0 °F 93% 29.60 in 0.5 mi Calm Calm - N/A   Overcast
8:21 AM 42.8 °F - 42.8 °F 100% 29.61 in 1.2 mi Calm Calm - N/A   Overcast
8:42 AM 44.6 °F - 42.8 °F 93% 29.61 in 1.8 mi Calm Calm - N/A   Overcast
9:03 AM 46.4 °F - 44.6 °F 93% 29.61 in 0.8 mi Calm Calm - N/A   Mostly Cloudy
9:24 AM 48.2 °F - 46.4 °F 93% 29.61 in 2.5 mi Calm Calm - N/A   Clear
9:45 AM 50.0 °F - 48.2 °F 94% 29.61 in 7.0 mi WSW 6.9 mph - N/A   Clear
10:06 AM 51.8 °F - 50.0 °F 94% 29.61 in 10.0 mi WSW 5.8 mph - N/A   Clear
10:27 AM 53.6 °F - 46.4 °F 77% 29.61 in 10.0 mi West 4.6 mph - N/A   Clear
10:48 AM 55.4 °F - 44.6 °F 67% 29.61 in 10.0 mi West 16.1 mph 19.6 mph N/A   Clear
11:12 AM 55.4 °F - 42.8 °F 63% 29.60 in 10.0 mi West 16.1 mph 25.3 mph N/A   Clear
11:33 AM 59.0 °F - 41.0 °F 51% 29.60 in 10.0 mi WSW 19.6 mph 24.2 mph N/A   Clear
11:54 AM 57.2 °F - 41.0 °F 55% 29.59 in 10.0 mi West 19.6 mph 28.8 mph N/A   Scattered Clouds
12:15 PM 59.0 °F - 41.0 °F 51% 29.59 in 10.0 mi West 19.6 mph 27.6 mph N/A   Mostly Cloudy
12:36 PM 59.0 °F - 37.4 °F 45% 29.59 in 10.0 mi West 18.4 mph 24.2 mph N/A   Scattered Clouds
12:57 PM 59.0 °F - 35.6 °F 42% 29.58 in 10.0 mi West 12.7 mph 34.5 mph N/A   Scattered Clouds
1:18 PM 57.2 °F - 37.4 °F 48% 29.59 in 10.0 mi West 16.1 mph 25.3 mph N/A   Mostly Cloudy
1:39 PM 59.0 °F - 35.6 °F 42% 29.59 in 10.0 mi West 18.4 mph 28.8 mph N/A   Mostly Cloudy
2:00 PM 57.2 °F - 39.2 °F 51% 29.61 in 10.0 mi WNW 19.6 mph 27.6 mph N/A   Mostly Cloudy
2:21 PM 51.8 °F - 37.4 °F 58% 29.62 in 10.0 mi WNW 10.4 mph 26.5 mph N/A   Scattered Clouds
3:03 PM 53.6 °F - 35.6 °F 51% 29.64 in 10.0 mi WNW 12.7 mph 29.9 mph N/A   Clear
3:27 PM 51.8 °F - 33.8 °F 50% 29.66 in 10.0 mi West 19.6 mph 28.8 mph N/A   Scattered Clouds
3:48 PM 51.8 °F - 33.8 °F 50% 29.67 in 10.0 mi WNW 10.4 mph 19.6 mph N/A   Scattered Clouds
4:09 PM 50.0 °F - 33.8 °F 54% 29.68 in 10.0 mi WNW 12.7 mph 20.7 mph N/A   Scattered Clouds
4:30 PM 48.2 °F - 32.0 °F 54% 29.69 in 10.0 mi WNW 19.6 mph 27.6 mph N/A   Scattered Clouds
4:51 PM 46.4 °F 40.4 °F 32.0 °F 57% 29.69 in 10.0 mi WNW 13.8 mph 31.1 mph N/A   Scattered Clouds
5:12 PM 46.4 °F 40.1 °F 32.0 °F 57% 29.71 in 10.0 mi WNW 15.0 mph 23.0 mph N/A   Clear
5:33 PM 44.6 °F 38.4 °F 32.0 °F 61% 29.72 in 10.0 mi WNW 12.7 mph 18.4 mph N/A   Scattered Clouds
5:54 PM 46.4 °F 42.9 °F 32.0 °F 57% 29.73 in 10.0 mi WNW 6.9 mph - N/A   Mostly Cloudy
6:15 PM 44.6 °F 39.7 °F 32.0 °F 61% 29.73 in 10.0 mi WNW 9.2 mph - N/A   Mostly Cloudy
6:36 PM 44.6 °F 39.7 °F 32.0 °F 61% 29.74 in 10.0 mi WNW 9.2 mph 17.3 mph N/A   Scattered Clouds
6:57 PM 44.6 °F 39.2 °F 32.0 °F 61% 29.75 in 10.0 mi WNW 10.4 mph 19.6 mph N/A   Clear
7:18 PM 42.8 °F 38.0 °F 32.0 °F 66% 29.76 in 10.0 mi WNW 8.1 mph - N/A   Clear
7:39 PM 42.8 °F 38.0 °F 30.2 °F 61% 29.78 in 10.0 mi WNW 8.1 mph 17.3 mph N/A   Clear
8:03 PM 42.8 °F 40.1 °F 30.2 °F 61% 29.78 in 10.0 mi WNW 4.6 mph - N/A   Clear
8:24 PM 41.0 °F 37.1 °F 30.2 °F 65% 29.80 in 10.0 mi WNW 5.8 mph - N/A   Clear
8:45 PM 41.0 °F 36.4 °F 30.2 °F 65% 29.80 in 10.0 mi WNW 6.9 mph - N/A   Clear
9:06 PM 39.2 °F 33.0 °F 30.2 °F 70% 29.81 in 10.0 mi WNW 9.2 mph - N/A   Clear
9:27 PM 41.0 °F 35.2 °F 30.2 °F 65% 29.81 in 10.0 mi West 9.2 mph - N/A   Clear
9:48 PM 39.2 °F 34.2 °F 30.2 °F 70% 29.81 in 10.0 mi West 6.9 mph - N/A   Clear
10:09 PM 39.2 °F 35.0 °F 30.2 °F 70% 29.81 in 10.0 mi West 5.8 mph - N/A   Clear
10:30 PM 37.4 °F 33.8 °F 30.2 °F 75% 29.81 in 10.0 mi West 4.6 mph - N/A   Clear
10:51 PM 35.6 °F 30.7 °F 32.0 °F 87% 29.81 in 10.0 mi West 5.8 mph - N/A   Clear
11:12 PM 35.6 °F 30.7 °F 32.0 °F 87% 29.81 in 10.0 mi WSW 5.8 mph - N/A   Clear
11:33 PM 35.6 °F 31.7 °F 32.0 °F 87% 29.82 in 10.0 mi West 4.6 mph - N/A   Clear
11:57 PM 33.8 °F 29.6 °F 32.0 °F 93% 29.83 in 10.0 mi West 4.6 mph - N/A   Clear